Flag for Belgium Weather past 2 weeks in Liège, Belgium

39 °F

Passing clouds.

Feels Like: 36 °F
Forecast: 35 / 42 °F
Wind: 5 mph from West

Location: Bierset

Current Time: Nov 26, 2015 at 10:58:13 AM

Latest Report: Nov 26, 2015 at 10:20 AM

Visibility: N/A

Pressure: 30.04 "Hg

Humidity: 87%

Dew point: 36 °F

Location of LiègeLocation

Historic Weather in Liège — Graph


Liège temperature yesterday

Maximum temperature yesterday: 45 °F (at 12:50 PM)
Minimum temperature yesterday: 37 °F (at 12:50 AM)
Average temperature yesterday: 40 °F

Past Weeks' High & Low Weather Summary

High59 °F (Nov 15, 1:20 PM)100% (Nov 19, 4:50 PM)30.36 "Hg (Nov 19, 4:50 PM)
Low30 °F (Nov 23, 12:50 AM)63% (Nov 18, 2:20 PM)29.39 "Hg (Nov 21, 1:20 PM)
Average46 °F86%29.96 "Hg
* Reported Nov 11 9:20 AM — Nov 26 9:20 AM, Liège, Weather by CustomWeather, © 2015

Note: Actual official high and low records may vary slightly from our data, if they occured in-between our weather recording intervals... More about our weather records


Liège weather history for previous 24 hours

Time TempWeatherWind HumidityBarometerVisibility
9:20 AM
Thu, Nov 26
36 °FScattered clouds.6 mph93%30.01 "Hg5 mi
8:50 AM36 °FBroken clouds.5 mph87%30.01 "Hg5 mi
8:20 AM34 °FPartly sunny.3 mph93%30.01 "Hg5 mi
7:50 AM34 °FPassing clouds.5 mph93%29.98 "Hg5 mi
7:20 AM34 °FPassing clouds.5 mph93%29.98 "Hg4 mi
6:50 AM36 °FPassing clouds.7 mph87%29.95 "Hg4 mi
6:20 AM34 °FPassing clouds.6 mph93%29.95 "Hg4 mi
5:50 AM34 °FPassing clouds.6 mph93%29.92 "Hg4 mi
5:20 AM36 °FPassing clouds.5 mph93%29.92 "Hg5 mi
4:50 AM36 °FPassing clouds.5 mph93%29.92 "Hg6 mi
3:50 AM36 °FPassing clouds.5 mph93%29.89 "Hg6 mi
3:20 AM37 °FPassing clouds.5 mph93%29.89 "Hg4 mi
2:50 AM37 °FPassing clouds.5 mph93%29.89 "Hg4 mi
2:20 AM37 °FPassing clouds.5 mph93%29.89 "Hg6 mi
1:50 AM39 °FPassing clouds.6 mph93%29.86 "HgN/A
1:20 AM39 °FPassing clouds.7 mph93%29.86 "HgN/A
12:50 AM39 °FPassing clouds.7 mph93%29.86 "Hg5 mi
12:20 AM39 °FPassing clouds.5 mph93%29.86 "Hg4 mi
11:50 PM
Wed, Nov 25
37 °FPassing clouds.6 mph93%29.83 "Hg4 mi
11:20 PM39 °FPassing clouds.6 mph93%29.83 "Hg6 mi
10:50 PM39 °FSprinkles. Partly cloudy.5 mph87%29.83 "Hg4 mi
10:20 PM37 °FPassing clouds.6 mph93%29.83 "HgN/A
9:50 PM39 °FPassing clouds.6 mph87%29.83 "HgN/A
9:20 PM37 °FPassing clouds.6 mph93%29.80 "HgN/A
8:50 PM39 °FPassing clouds.6 mph93%29.80 "HgN/A
8:20 PM39 °FPassing clouds.6 mph93%29.80 "HgN/A
7:50 PM39 °FPartly cloudy.7 mph93%29.77 "HgN/A
7:20 PM37 °FPartly cloudy.7 mph93%29.77 "HgN/A
6:50 PM37 °FPartly cloudy.6 mph93%29.77 "HgN/A
6:20 PM37 °FPartly cloudy.6 mph93%29.74 "HgN/A
5:50 PM39 °FSprinkles. Partly cloudy.8 mph93%29.74 "HgN/A
5:20 PM39 °FPassing clouds.7 mph93%29.74 "HgN/A
4:50 PM39 °FPassing clouds.7 mph93%29.71 "HgN/A
4:20 PM41 °FBroken clouds.7 mph87%29.71 "HgN/A
3:50 PM41 °FBroken clouds.6 mph87%29.71 "HgN/A
3:20 PM41 °FBroken clouds.7 mph87%29.71 "HgN/A
2:50 PM41 °FBroken clouds.6 mph87%29.71 "HgN/A
2:20 PM41 °FSprinkles. Partly sunny.9 mph87%29.71 "Hg4 mi
1:50 PM41 °FPartly sunny.10 mph81%29.71 "HgN/A
1:20 PM43 °FPassing clouds.13 mph81%29.71 "HgN/A
12:50 PM45 °FPassing clouds.13 mph87%29.71 "HgN/A
12:20 PM43 °FPassing clouds.12 mph87%29.71 "HgN/A
11:50 AM43 °FPassing clouds.12 mph81%29.71 "HgN/A
11:20 AM41 °FScattered clouds.9 mph87%29.74 "HgN/A
10:50 AM41 °FScattered clouds.10 mph87%29.74 "Hg5 mi
10:20 AM41 °FSprinkles. Broken clouds.14 mph87%29.74 "Hg2 mi
Weather by CustomWeather, © 2015

See weather overviewHow to use our weather pages